Regional Weather Roundup
Issued by NWS

Home | Current Version | Previous Version | Text Only | Print | Product List | Glossary On
Versions: 1 2 3 4 5 6 7 8 9 10 11 12 13 14 15 16 17 18 19 20 21 22 23 24 25 26 27 28 29 30 31 32 33 34 35 36 37 38 39 40 41 42 43 44 45 46 47 48 49 50
000
ASUS46 KPQR 262110
RWROR

OREGON REGIONAL WEATHER ROUNDUP
NATIONAL WEATHER SERVICE PORTLAND OR
200 PM PDT THU MAY 26 2016

NOTE: "FAIR" INDICATES FEW OR NO CLOUDS BELOW 12,000 FEET WITH
NO SIGNIFICANT WEATHER AND/OR OBSTRUCTIONS TO VISIBILITY.

ORZ001>013-262200-
NORTHWEST OREGON


CITY           SKY/WX    TMP DP  RH WIND       PRES   REMARKS
ASTORIA        CLOUDY    58  48  69 NW12      30.25S
NEWPORT        SUNNY     59  48  67 NW12      30.31
PORTLAND       CLOUDY    60  42  51 W5        30.22F
VANCOUVER WA   CLOUDY    59  44  57 SW6       30.22F
SCAPPOOSE      CLOUDY    59  45  59 VRB6      30.22S
HILLSBORO      CLOUDY    59  43  55 VRB3      30.22S
AURORA         CLOUDY    57  44  62 CALM      30.24F
MCMINNVILLE    CLOUDY    59  45  59 SW6       30.24F
SALEM          CLOUDY    58  44  60 W13       30.23S
CORVALLIS        N/A     63  41  45 NW5       30.25F
EUGENE         CLOUDY    60  44  55 N6        30.24F
$$

ORZ021-028-262200-
SOUTHWEST OREGON


CITY           SKY/WX    TMP DP  RH WIND       PRES   REMARKS
NORTH BEND     PTSUNNY   61  48  63 NW17G23   30.28S
BROOKINGS      SUNNY     63  48  58 NW16G22   30.16S
ROSEBURG       CLOUDY    63  41  44 VRB5      30.22S
SEXTON SUMMIT  SUNNY     56  42  59 VRB5      30.18F
MEDFORD        MOSUNNY   70  40  33 VRB3      30.13F
$$

ORZ014>016-041-262200-
COLUMBIA GORGE


CITY           SKY/WX    TMP DP  RH WIND       PRES   REMARKS
TROUTDALE      CLOUDY    59  44  57 VRB5      30.22F
THE DALLES     MOSUNNY   66  37  34 W31G41    30.11F
$$

ORZ029>031-041-044-049-050-061>064-502-503-505>511-262200-
EASTERN OREGON


CITY           SKY/WX    TMP DP  RH WIND       PRES   REMARKS
REDMOND        MOSUNNY   65  28  24 VRB7      30.08F
BEND           MOSUNNY   63  32  31 N10G17    30.08F
PRINEVILLE     MOSUNNY   63  37  39 W8        30.08F
KLAMATH FALLS  SUNNY     65  33  30 VRB5      30.09F
LAKEVIEW       SUNNY     64  34  32 SE12      30.12F
HERMISTON        N/A    N/A N/A N/A MISG        N/A
PENDLETON      PTSUNNY   67  36  31 W23       30.03F
JOHN DAY         N/A    N/A N/A N/A MISG        N/A
MEACHAM        MOSUNNY   56  35  45 VRB6      30.07S
LA GRANDE      PTSUNNY   66  37  34 NW7G18    30.01F
BAKER CITY     PTSUNNY   65  43  44 W6        30.02F
BURNS          MOSUNNY   64  34  32 SW7       30.05F
ROME             N/A     69  31  24 S6        30.02F
ONTARIO        NOT AVBL
$$



USA.gov is the U.S. government's official web portal to all federal, state and local government web resources and services.